map of MNI home
Great Circle Mapper logo
MNI - Airport
Location
City:  Gerald's Park, Montserrat
Name:John A. Osborne Airport
Old (Alt.):Gerald's Airport
ICAO / IATA:TRPG / MNI

Details
Type:Airport (Aerodrome, Airfield)
Latitude:1647'29"N (16.791389)
Longitude:6211'36"W (-62.193332)
Elevation:551 ft (168 m)
Variation:14.56W (WMM2015 magnetic declination)
-0.03 annual change
Runways:1
Longest:1814 × 59 ft (553 × 18 m)

Time
Time Zone:UTC-4
Local Time:

Weather
METAR:TRPG 182000Z 12014KT 9999 HZ SCT021 BKN250 26/21 Q1016
TAF:TRPG 182200Z 1900/1924 12018KT 9999 SCT019 PROB30
TEMPO 1904/1914 SHRA BKN015

Related Locations
Nearby:
Farthest:PHE: 12178 mi / 19599 km
Port Hedland, WA, AU

Find:

   beyond  
but within

Other Information
Maps:
NOTAMs:
Links:
Sources:

  
flag of Montserrat   

Sectional Chart

Flight Planning
at skyvector.com

Satellite Image

Google Maps Satellite View

 

Copyright © 2004-2015 Karl L. Swartz. All rights reserved.
The Great Circle Mapper name and logo are trademarks of the Great Circle Mapper.
All other trademarks mentioned herein belong to their respective owners.
Please see credits for attibutions and further copyright information.

  Follow gcmap on Facebook Follow gcmap on Twitter Follow gcmap on Google+

hCard Microformat

Geo Microformat